This is the latest recevied weather packets stored in our database for station/object SP7QPD-1. If no packets are shown the sender has not sent any weather packets the latest 10 day(s).
| Time | Temp. | Humidity | Pressure | Rain* | Wind** | Luminosity | Snow |
|---|---|---|---|---|---|---|---|
| 1777797769 | 21.67° C | 42% | 1016.8 hPa | 0 mm | - | - | - |
| 1777797169 | 21.67° C | 44% | 1016.9 hPa | 0 mm | - | - | - |
| 1777796569 | 21.11° C | 45% | 1016.8 hPa | 0 mm | - | - | - |
| 1777795969 | 20.56° C | 47% | 1016.9 hPa | 0 mm | - | - | - |
| 1777795369 | 20° C | 49% | 1016.7 hPa | 0 mm | - | - | - |
| 1777794769 | 19.44° C | 51% | 1016.8 hPa | 0 mm | - | - | - |
| 1777794169 | 18.33° C | 53% | 1016.9 hPa | 0 mm | - | - | - |
| 1777793569 | 17.22° C | 56% | 1016.9 hPa | 0 mm | - | - | - |
| 1777792969 | 16.11° C | 58% | 1016.9 hPa | 0 mm | - | - | - |
| 1777792369 | 15.56° C | 58% | 1017 hPa | 0 mm | - | - | - |
| 1777791769 | 15° C | 59% | 1017 hPa | 0 mm | - | - | - |
| 1777791169 | 15° C | 59% | 1017 hPa | 0 mm | - | - | - |
| 1777790568 | 14.44° C | 61% | 1016.9 hPa | 0 mm | - | - | - |
| 1777789968 | 13.89° C | 63% | 1017.1 hPa | 0 mm | - | - | - |
| 1777789368 | 13.33° C | 64% | 1017 hPa | 0 mm | - | - | - |
| 1777788768 | 13.33° C | 66% | 1017 hPa | 0 mm | - | - | - |
| 1777788168 | 12.22° C | 69% | 1017.1 hPa | 0 mm | - | - | - |
| 1777787568 | 12.22° C | 71% | 1017.1 hPa | 0 mm | - | - | - |
| 1777786968 | 11.67° C | 72% | 1017.1 hPa | 0 mm | - | - | - |
| 1777786368 | 10.56° C | 72% | 1017.1 hPa | 0 mm | - | - | - |
| 1777785768 | 8.89° C | 71% | 1017.4 hPa | 0 mm | - | - | - |
| 1777785168 | 7.78° C | 71% | 1017.3 hPa | 0 mm | - | - | - |
| 1777784568 | 7.78° C | 70% | 1017.4 hPa | 0 mm | - | - | - |
| 1777783967 | 7.22° C | 70% | 1017.5 hPa | 0 mm | - | - | - |
| 1777783367 | 6.67° C | 70% | 1017.3 hPa | 0 mm | - | - | - |
* Rain latest hour (hover to see other rain measurements)
** Current wind speed in m/s (hover to see current wind gust speed)